[[{"header":{"parameterUnit":"m.s-1","parameterCategory":1,"la1":30.2991,"la2":30.254,"lo1":-89.0895,"lo2":-89.0444,"dy":0.0017,"dx":0.0017,"nx":28,"ny":28,"refTime":"2024-05-04T21:00:00:Z","depth":0,"parameterNumber":2,"parameterNumberName":"U-component_of_WINDS"},"data":[0,0,0,0,0,0,0,0,0,0,0,0,0,0,0,0,0,0,0,0,0,0,0,0,0,0,0,0,0,0,0,0,0,0,0,0,0,0,0,0,0,0,0,0,0,0,0,0,0,0,0,0,0,0,0,0,0,0,-4.3719,-4.372,0,-4.3812,-4.3813,-4.3814,-4.3816,-4.3815,-4.3814,-4.3813,-4.3902,-4.3906,-4.3909,0,0,0,0,0,0,0,0,0,0,0,0,0,-4.3538,-4.3541,-4.3719,-4.372,-4.3721,-4.3812,-4.3813,-4.3815,-4.3816,-4.3815,-4.3813,-4.3812,-4.3901,-4.3905,-4.391,0,0,0,0,0,0,0,0,0,0,0,0,0,-4.3622,-4.3543,-4.3719,-4.3733,-4.3735,-4.3812,-4.3813,-4.3815,-4.3816,-4.3815,-4.3813,-4.3811,-4.39,-4.3905,-4.391,-4.3977,0,0,-4.3926,-4.3928,0,0,0,0,0,0,0,0,-4.3618,-4.3629,-4.373,-4.3732,-4.3735,-4.3801,-4.3783,-4.3869,-4.3817,-4.3785,-4.3813,-4.3811,-4.387,-4.3877,-4.3898,-4.3981,-4.3985,-4.3926,-4.393,-4.3932,-4.3933,0,0,0,0,0,0,0,-4.3612,-4.3625,-4.3756,-4.3731,-4.3734,-4.3734,-4.3744,-4.3799,-4.3836,-4.3788,-4.3788,-4.38,-4.3871,-4.3893,-4.39,-4.3986,-4.3926,-4.3931,-4.3934,-4.3936,-4.4129,-4.4131,0,0,0,0,0,0,-4.3604,-4.362,-4.3753,-4.3758,-4.3671,-4.3738,-4.375,-4.3781,-4.3835,-4.3842,-4.3801,-4.38,-4.3885,-4.3894,-4.3904,-4.3985,-4.3932,-4.3937,-4.394,-4.4127,-4.4129,-4.4131,0,0,0,0,0,0,-4.36,-4.3615,-4.3749,-4.3689,-4.3706,-4.3743,-4.3779,-4.3784,-4.3807,-4.3845,-4.3851,-4.3818,-4.3884,-4.3896,-4.3959,-4.3988,-4.3939,-4.3944,-4.4124,-4.4127,-4.413,-4.4148,0,0,0,0,0,0,-4.3595,-4.3614,-4.364,-4.369,-4.371,-4.3804,-4.3781,-4.3787,-4.3816,-4.3815,-4.3862,-4.3869,-4.3884,-4.3951,-4.3964,-4.3994,-4.3948,-4.4122,-4.4126,-4.4129,-4.4145,-4.4152,-4.4157,0,0,0,0,0,-4.3588,-4.364,-4.3642,-4.3658,-4.3744,-4.3806,-4.3816,-4.3835,-4.3819,-4.3845,-4.387,-4.3867,-4.3984,-4.3958,-4.3972,-4.4004,-4.412,-4.4125,-4.4129,-4.4143,-4.415,-4.4157,0,0,0,0,0,0,-4.359,-4.3647,-4.3649,-4.3719,-4.3758,-4.3806,-4.3839,-4.3842,-4.3884,-4.3881,-4.39,-4.3911,-4.3973,-4.3996,-4.3966,-4.4072,-4.405,-4.4057,-4.4055,-4.4063,-4.4069,-4.4061,-4.3952,0,0,0,0,0,-4.36,-4.3647,-4.3693,-4.375,-4.377,-4.3802,-4.3829,-4.384,-4.388,-4.3896,-4.3925,-4.3963,-4.4008,-4.4037,-4.408,-4.415,-4.4159,-4.4179,-4.4185,-4.4189,-4.4195,-4.4233,-4.4242,-4.4146,-4.4146,-4.4146,0,0,-4.3618,-4.3655,-4.3683,-4.3752,-4.3783,-4.383,-4.3815,-4.3865,-4.39,-4.3903,-4.3964,-4.3988,-4.4031,-4.4097,-4.4128,-4.4117,-4.4224,-4.4195,-4.4199,-4.4202,-4.4239,-4.4248,-4.4256,-4.4149,-4.4149,-4.4148,0,0,-4.3675,-4.3708,-4.376,-4.3793,-4.3841,-4.3862,-4.3875,-4.3923,-4.3939,-4.4002,-4.4005,-4.4047,-4.4124,-4.4155,-4.418,-4.4253,-4.4251,-4.4266,-4.4296,-4.4333,-4.4341,-4.4347,-4.4372,-4.4381,-4.4272,-4.4272,-4.4273,0,-4.3691,-4.3764,-4.3786,-4.3837,-4.3867,-4.3875,-4.3927,-4.3957,-4.4016,-4.4036,-4.4025,-4.4123,-4.4152,-4.4226,-4.4244,-4.4265,-4.4279,-4.426,-4.4338,-4.4345,-4.4352,-4.4376,-4.4385,-4.4274,-4.4274,-4.4274,-4.4273,0,-4.3781,-4.3831,-4.3867,-4.3927,-4.3961,-4.4012,-4.4041,-4.4073,-4.4082,-4.4104,-4.4168,-4.4205,-4.4256,-4.4275,-4.4283,-4.435,-4.4342,-4.4334,-4.4312,-4.4362,-4.4385,-4.4394,-4.4276,-4.4275,-4.4275,-4.4275,0,0,-4.3839,-4.3913,-4.3925,-4.3953,-4.4008,-4.4047,-4.4099,-4.4152,-4.4178,-4.422,-4.4263,-4.433,-4.4324,-4.4353,-4.4365,-4.4398,-4.4452,-4.4386,-4.4387,-4.4396,-4.4528,-4.4532,-4.4542,-4.4453,-4.4455,-4.4456,-4.4524,0,-4.3901,-4.3995,-4.4017,-4.4097,-4.4144,-4.4153,-4.4199,-4.4237,-4.426,-4.4301,-4.4326,-4.4373,-4.4361,-4.4379,-4.4413,-4.4438,-4.4478,-4.4434,-4.4491,-4.4493,-4.4478,-4.4554,-4.4558,-4.462,-4.4533,-4.4534,-4.4535,0,-4.3985,-4.4031,-4.4116,-4.4167,-4.4188,-4.4228,-4.4279,-4.4319,-4.4363,-4.4377,-4.4412,-4.4421,-4.4474,-4.4452,-4.4525,-4.4494,-4.4519,-4.4536,-4.4539,-4.4542,-4.4515,-4.4558,-4.464,-4.4649,-4.455,-4.4549,-4.4548,0,-4.4018,-4.4101,-4.4163,-4.4187,-4.4248,-4.4276,-4.4302,-4.4345,-4.4375,-4.4419,-4.4439,-4.4489,-4.4515,-4.4552,-4.4574,-4.4556,-4.4646,-4.4624,-4.4657,-4.4657,-4.4673,-4.4672,-4.4759,-4.4693,-4.4693,-4.4693,-4.4693,0,-4.4084,-4.4135,-4.4179,-4.4216,-4.4274,-4.43,-4.4356,-4.4382,-4.4421,-4.4463,-4.4474,-4.4513,-4.4541,-4.4584,-4.4602,-4.4659,-4.4671,-4.4683,-4.4687,-4.4681,-4.4679,-4.4696,-4.4691,-4.4695,-4.4695,-4.4694,-4.4694,0,-4.4129,-4.416,-4.4228,-4.4282,-4.4297,-4.4337,-4.4382,-4.4418,-4.4443,-4.4496,-4.451,-4.4547,-4.4598,-4.4625,-4.4688,-4.47,-4.4765,-4.4767,-4.475,-4.4751,-4.4782,-4.4778,-4.4881,-4.4895,-4.4822,-4.4823,-4.4823,0,-4.4168,-4.4208,-4.4267,-4.4297,-4.4325,-4.4373,-4.4405,-4.4433,-4.4465,-4.452,-4.4549,-4.4602,-4.4645,-4.4726,-4.4758,-4.4807,-4.4809,-4.4842,-4.4816,-4.4809,-4.4807,-4.4804,-4.4808,-4.4845,-4.4846,-4.4846,-4.4847,0,-4.4233,-4.4248,-4.4295,-4.4348,-4.4387,-4.4429,-4.4471,-4.4495,-4.4529,-4.4565,-4.4619,-4.4653,-4.4719,-4.477,-4.4822,-4.4847,-4.4852,-4.4855,-4.4865,-4.4858,-4.4847,-4.4852,-4.4761,-4.4852,-4.4851,-4.4851,-4.4851,-4.4851,-4.4276,-4.4312,-4.436,-4.4412,-4.4447,-4.4487,-4.4524,-4.4554,-4.46,-4.4657,-4.4671,-4.4727,-4.4771,-4.4841,-4.4869,-4.4913,-4.4906,-4.492,-4.4924,-4.4926,-4.4927,-4.4842,-4.4922,-4.4922,-4.4922,-4.4922,-4.4922,0,-4.4341,-4.4373,-4.4421,-4.4481,-4.4522,-4.4526,-4.4573,-4.4607,-4.4657,-4.4699,-4.4742,-4.4804,-4.4854,-4.4891,-4.4943,-4.4971,-4.4974,-4.4983,-4.498,-4.4986,-4.4931,-4.4917,-4.4979,-4.4979,-4.4979,-4.4979,-4.4979,-4.4979,-4.4379,-4.4441,-4.4462,-4.4541,-4.4572,-4.4629,-4.4656,-4.4692,-4.4725,-4.4795,-4.4838,-4.4863,-4.4902,-4.4957,-4.5003,-4.5013,-4.503,-4.5039,-4.5048,-4.4996,-4.4989,-4.4984,-4.497,-4.5043,-4.5043,-4.5099,-4.51,-4.51]},{"header":{"parameterUnit":"m.s-1","parameterCategory":1,"la1":30.2991,"la2":30.254,"lo1":-89.0895,"lo2":-89.0444,"dy":0.0017,"dx":0.0017,"nx":28,"ny":28,"refTime":"2024-05-04T21:00:00:Z","depth":0,"parameterNumber":3,"parameterNumberName":"V-component_of_WINDS"},"data":[0,0,0,0,0,0,0,0,0,0,0,0,0,0,0,0,0,0,0,0,0,0,0,0,0,0,0,0,0,0,0,0,0,0,0,0,0,0,0,0,0,0,0,0,0,0,0,0,0,0,0,0,0,0,0,0,0,0,3.2298,3.2298,0,3.2282,3.2281,3.2281,3.2305,3.2306,3.2307,3.2307,3.2283,3.2281,3.228,0,0,0,0,0,0,0,0,0,0,0,0,0,3.2345,3.2344,3.2298,3.2298,3.2298,3.2282,3.2281,3.2281,3.2305,3.2306,3.2307,3.2308,3.2283,3.2281,3.228,0,0,0,0,0,0,0,0,0,0,0,0,0,3.2326,3.2343,3.2298,3.2308,3.2309,3.2282,3.2281,3.2281,3.2305,3.2306,3.2307,3.2308,3.2284,3.2282,3.2279,3.224,0,0,3.2273,3.2272,0,0,0,0,0,0,0,0,3.2327,3.2324,3.2307,3.2307,3.2308,3.2297,3.2289,3.2267,3.2304,3.2306,3.2308,3.2309,3.2286,3.2284,3.2277,3.2239,3.2238,3.2272,3.2271,3.227,3.227,0,0,0,0,0,0,0,3.2328,3.2325,3.2291,3.2306,3.2307,3.2311,3.231,3.2285,3.2288,3.2306,3.2308,3.2306,3.2286,3.2279,3.2277,3.2237,3.2273,3.2271,3.2269,3.2268,3.2168,3.2167,0,0,0,0,0,0,3.2329,3.2326,3.2292,3.2291,3.2321,3.2309,3.2308,3.2299,3.2289,3.2289,3.2305,3.2307,3.2283,3.2279,3.2276,3.2231,3.227,3.2268,3.2267,3.217,3.2168,3.2167,0,0,0,0,0,0,3.233,3.2326,3.2293,3.2309,3.2305,3.2307,3.2297,3.2298,3.2291,3.2288,3.2288,3.2297,3.2283,3.2279,3.225,3.2231,3.2267,3.2265,3.2171,3.2169,3.2167,3.214,0,0,0,0,0,0,3.2331,3.2326,3.2312,3.2309,3.2304,3.2268,3.2296,3.2297,3.2288,3.2291,3.2281,3.2281,3.2284,3.2253,3.2248,3.2228,3.2263,3.2173,3.217,3.2168,3.2142,3.2137,3.2132,0,0,0,0,0,3.2333,3.2303,3.2311,3.2307,3.2287,3.2267,3.2264,3.2271,3.2287,3.2272,3.2271,3.2281,3.2234,3.225,3.2244,3.2223,3.2174,3.2171,3.2168,3.2144,3.2138,3.2133,0,0,0,0,0,0,3.2301,3.2302,3.2312,3.228,3.2274,3.2271,3.2253,3.2264,3.225,3.2253,3.226,3.2257,3.2227,3.2222,3.224,3.2186,3.2206,3.2202,3.219,3.2184,3.2179,3.2181,3.2262,0,0,0,0,0,3.2291,3.2276,3.2278,3.2249,3.2246,3.225,3.2241,3.2248,3.224,3.2237,3.2233,3.2223,3.2207,3.2195,3.2179,3.2142,3.2141,3.2125,3.212,3.2116,3.2112,3.2094,3.2088,3.2157,3.2157,3.2157,0,0,3.2268,3.2267,3.2257,3.2243,3.2239,3.2222,3.2247,3.2228,3.2216,3.2233,3.2206,3.2203,3.2193,3.2161,3.2146,3.2156,3.2093,3.2112,3.2109,3.2107,3.209,3.2084,3.2078,3.2155,3.2155,3.2155,0,0,3.2219,3.2217,3.2194,3.2191,3.2185,3.2189,3.2184,3.218,3.218,3.2154,3.2167,3.2152,3.2122,3.2115,3.2108,3.206,3.2069,3.2054,3.2028,3.201,3.2005,3.2,3.1984,3.1978,3.205,3.205,3.205,0,3.2191,3.2169,3.218,3.2162,3.2156,3.2174,3.2151,3.2146,3.2134,3.2129,3.2141,3.2107,3.2101,3.2068,3.2057,3.205,3.2043,3.2055,3.2005,3.2001,3.1996,3.1981,3.1975,3.2049,3.2049,3.2049,3.2049,0,3.2136,3.212,3.2102,3.2095,3.2086,3.2065,3.2073,3.2062,3.207,3.2072,3.2046,3.204,3.2025,3.2018,3.2023,3.1986,3.1993,3.2005,3.2025,3.1988,3.1974,3.1968,3.2046,3.2047,3.2047,3.2048,0,0,3.2064,3.2066,3.2059,3.2057,3.2054,3.2041,3.2021,3.2009,3.2001,3.1993,3.1976,3.1953,3.1965,3.1957,3.1962,3.1946,3.1911,3.1961,3.1961,3.1952,3.1871,3.1862,3.1855,3.1918,3.1917,3.1916,3.1872,0,3.2016,3.1985,3.1996,3.1963,3.1949,3.1968,3.1951,3.1946,3.1948,3.1935,3.1936,3.192,3.1938,3.1933,3.1919,3.1918,3.1894,3.1921,3.1901,3.19,3.1903,3.1847,3.1837,3.1796,3.1866,3.1865,3.1865,0,3.1956,3.195,3.1916,3.1918,3.1913,3.1897,3.1889,3.1877,3.1872,3.1875,3.1867,3.1877,3.1856,3.1878,3.185,3.1868,3.1861,3.186,3.1858,3.1856,3.188,3.1844,3.1783,3.1777,3.1856,3.1856,3.1857,0,3.1908,3.1891,3.187,3.1867,3.1868,3.1857,3.1857,3.1854,3.1847,3.1839,3.1834,3.1822,3.1816,3.1806,3.1812,3.1827,3.1784,3.1805,3.1785,3.1784,3.1774,3.1774,3.1711,3.1769,3.1769,3.1769,3.1769,0,3.1854,3.1833,3.1849,3.1835,3.1813,3.1826,3.1802,3.1803,3.1801,3.1788,3.1802,3.1789,3.1798,3.1785,3.1789,3.1766,3.1762,3.1764,3.1765,3.1762,3.1762,3.1757,3.176,3.1767,3.1768,3.1768,3.1768,0,3.1796,3.1806,3.1785,3.1789,3.179,3.1773,3.1776,3.1763,3.1767,3.175,3.1747,3.1753,3.1739,3.1744,3.1728,3.1731,3.1702,3.1707,3.1705,3.1706,3.1686,3.1688,3.1617,3.1608,3.1671,3.167,3.167,0,3.1761,3.1746,3.175,3.1744,3.1744,3.1733,3.1727,3.1739,3.1732,3.1728,3.1715,3.1704,3.1695,3.1671,3.1673,3.1661,3.1666,3.1642,3.1664,3.1663,3.1667,3.1668,3.1667,3.1637,3.1637,3.1636,3.1636,0,3.1698,3.1705,3.1697,3.1692,3.1685,3.1681,3.1677,3.167,3.1683,3.1674,3.1662,3.1655,3.1641,3.1629,3.162,3.1617,3.1628,3.1629,3.1624,3.1621,3.1621,3.1622,3.1693,3.163,3.1631,3.1631,3.1631,3.1632,3.1652,3.164,3.1642,3.1634,3.1633,3.163,3.162,3.1624,3.1615,3.1606,3.1614,3.1599,3.1597,3.1586,3.1583,3.1571,3.158,3.1572,3.157,3.1568,3.1566,3.1623,3.1569,3.1569,3.1569,3.1569,3.1569,0,3.159,3.1594,3.1586,3.1582,3.1576,3.159,3.1587,3.158,3.1568,3.1566,3.1559,3.1545,3.1534,3.1537,3.1527,3.1517,3.1522,3.1514,3.1515,3.1514,3.1558,3.1564,3.1511,3.1511,3.1511,3.1511,3.1511,3.1511,3.1558,3.154,3.1547,3.1529,3.1531,3.152,3.1517,3.1515,3.1514,3.1499,3.1491,3.1494,3.1494,3.1485,3.1475,3.1476,3.1472,3.1462,3.1465,3.1505,3.1511,3.1517,3.1522,3.1461,3.1461,3.1423,3.1423,3.1422]}]]